W7JFO-3 Weather Reports


time (UTC)temp
C
wind
direction
speed
KPH
gust
KPH
rain 1hr
cm
rain 24hr
cm
rain mn
cm
humidity
%
barometer
mb
20260504184645 13 317 6.4 16.1 0.00 0.00 0.00 42 1008.9
20260504183146 13 9 6.4 14.5 0.00 0.00 0.00 42 1009.1
20260504181646 13 347 4.8 11.3 0.00 0.00 0.00 44 1009.2
20260504180146 13 328 6.4 14.5 0.00 0.00 0.00 42 1009.2
20260504174646 13 19 6.4 14.5 0.00 0.00 0.00 43 1009.2
20260504173146 12 64 6.4 14.5 0.00 0.00 0.00 43 1009.4
20260504171646 12 339 6.4 12.9 0.00 0.00 0.00 44 1009.4
20260504170146 12 5 4.8 9.7 0.00 0.00 0.00 44 1009.4
20260504160146 12 109 6.4 17.7 0.00 0.00 0.00 46 1009.5
20260504150146 10 68 4.8 11.3 0.00 0.00 0.00 48 1009.7
20260504140146 8 107 8.0 12.9 0.00 0.00 0.00 50 1009.3
20260504130146 8 89 8.0 12.9 0.00 0.00 0.00 50 1008.8
20260504120146 8 96 12.9 22.5 0.00 0.00 0.00 47 1008.6
20260504110146 9 73 11.3 20.9 0.00 0.00 0.00 46 1008.0
20260504100146 10 101 12.9 16.1 0.00 0.00 0.00 45 1008.0
20260504081647 11 144 8.0 14.5 0.00 0.00 0.00 43 1006.9
20260504080147 12 109 12.9 20.9 0.00 0.00 0.00 42 1006.7
20260504070147 14 101 11.3 24.1 0.00 0.00 0.00 38 1005.9
20260504060147 16 294 6.4 9.7 0.00 0.00 0.00 31 1005.6
20260504050147 17 236 4.8 11.3 0.00 0.00 0.00 29 1005.8
20260504044647 17 216 4.8 8.0 0.00 0.00 0.00 29 1005.9
20260504043147 17 231 8.0 11.3 0.00 0.00 0.00 29 1005.6
20260504041647 17 238 4.8 8.0 0.00 0.00 0.00 29 1006.0
20260504040147 17 218 6.4 11.3 0.00 0.00 0.00 31 1005.6
20260504034647 17 223 4.8 8.0 0.00 0.00 0.00 30 1005.5
20260504033147 17 217 6.4 11.3 0.00 0.00 0.00 30 1005.8
20260504031647 17 236 3.2 6.4 0.00 0.00 0.00 31 1005.4
20260504030147 18 270 6.4 12.9 0.00 0.00 0.00 30 1005.5
20260504024647 18 268 3.2 6.4 0.00 0.00 0.00 30 1005.7
20260504023147 19 265 3.2 4.8 0.00 0.00 0.00 31 1005.8
20260504021647 19 265 3.2 6.4 0.00 0.00 0.00 31 1005.5
20260504020147 19 280 3.2 9.7 0.00 0.00 0.00 29 1005.4
20260504014647 19 241 1.6 6.4 0.00 0.00 0.00 30 1005.7
20260504013147 19 342 3.2 4.8 0.00 0.00 0.00 33 1005.5
20260504011647 19 317 3.2 6.4 0.00 0.00 0.00 31 1005.6
20260504010147 20 331 4.8 6.4 0.00 0.00 0.00 31 1005.5
20260504004647 20 347 3.2 6.4 0.00 0.00 0.00 30 1005.6
20260504003147 20 327 4.8 8.0 0.00 0.00 0.00 29 1005.9
20260504001647 20 318 6.4 9.7 0.00 0.00 0.00 29 1006.0
20260504000147 20 320 6.4 14.5 0.00 0.00 0.00 29 1006.2
20260503234647 20 331 8.0 14.5 0.00 0.00 0.00 30 1006.3
20260503233147 20 323 6.4 14.5 0.00 0.00 0.00 29 1006.6
20260503231647 20 317 8.0 19.3 0.00 0.00 0.00 28 1006.7
20260503230147 20 325 6.4 12.9 0.00 0.00 0.00 30 1006.6
20260503224647 19 321 6.4 11.3 0.00 0.00 0.00 30 1006.8
20260503223147 19 19 6.4 11.3 0.00 0.00 0.00 31 1007.0
20260503221648 18 319 6.4 14.5 0.00 0.00 0.00 31 1007.3
20260503220148 18 0 6.4 11.3 0.00 0.00 0.00 31 1007.4
20260503214648 18 32 6.4 12.9 0.00 0.00 0.00 32 1007.5
20260503213148 18 355 6.4 9.7 0.00 0.00 0.00 32 1007.7
20260503211648 18 342 4.8 8.0 0.00 0.00 0.00 33 1007.8
20260503210148 17 322 6.4 12.9 0.00 0.00 0.00 35 1008.4
20260503204648 17 337 6.4 12.9 0.00 0.00 0.00 37 1008.5
20260503203148 17 355 4.8 12.9 0.00 0.00 0.00 36 1008.9
20260503201648 17 24 4.8 8.0 0.00 0.00 0.00 36 1008.9
20260503200148 17 31 3.2 11.3 0.00 0.00 0.00 36 1009.3
20260503194648 16 14 4.8 8.0 0.00 0.00 0.00 37 1009.3
20260503193148 16 38 3.2 8.0 0.00 0.00 0.00 37 1009.9
20260503191648 15 350 4.8 6.4 0.00 0.00 0.00 34 1010.4
20260503190148 15 355 4.8 9.7 0.00 0.00 0.00 39 1010.6